Weather History for KNID - June, 2012

Change the Weather History Date:

Tuesday, June 26, 2012

  Actual Average Record
Temperature  
Mean Temperature 80 °F -  
Max Temperature 96 °F 97 °F 106 °F (2006)
Min Temperature 66 °F 68 °F 57 °F (2003)
Cooling Degree Days 16    
Growing Degree Days 30 (Base 50)    
Moisture  
Dew Point 33 °F    
Average Humidity 22    
Maximum Humidity 36    
Minimum Humidity 7    
Precipitation  
Precipitation 0.00 in - - ()
Sea Level Pressure  
Sea Level Pressure 29.75 in    
Wind  
Wind Speed 14 mph (SSW)    
Max Wind Speed 22 mph    
Max Gust Speed 30 mph    
Visibility 10 miles    
Events      
Averages and records for this station are not official NWS values.
T = Trace of Precipitation, MM = Missing Value Source: NWS Daily Summary

Daily Weather History Graph

Daily Weather History Graph

Search for Another Location

Airport or City:

Trip Planner

Search our weather history database for the weather conditions in past years. The results will help you decide how hot, cold, wet, or windy it might be!

Date:

Astronomy

Jun. 26, 2012 Rise Set
Actual Time 5:36 AM PDT 8:10 PM PDT
Civil Twilight 5:06 AM PDT 8:40 PM PDT
Nautical Twilight 4:29 AM PDT 9:17 PM PDT
Astronomical Twilight 3:48 AM PDT 9:59 PM PDT
Moon 12:42 PM PDT (6/26) No Moon Set
Length of Visible Light 15h 33m
Length of Day
14h 33m
Waxing Crescent, 46% of the Moon is Illuminated
Jun 26
Waxing Crescent
Jun 26
First Quarter
Jul 3
Full
Jul 10
Last Quarter
Jul 18
New

Hourly Weather History & Observations

Time (PDT) Temp. Dew Point Humidity Pressure Visibility Wind Dir Wind Speed Gust Speed Precip Events Conditions
12:56 AM 70.0 °F 36.0 °F 29% 29.80 in 10.0 mi SSW 21.9 mph 29.9 mph N/A   Clear
1:56 AM 69.1 °F 37.0 °F 31% 29.79 in 10.0 mi South 21.9 mph - N/A   Clear
2:56 AM 68.0 °F 37.9 °F 33% 29.78 in 10.0 mi South 19.6 mph 25.3 mph N/A   Clear
3:56 AM 66.9 °F 37.9 °F 34% 29.78 in 10.0 mi SSW 17.3 mph - N/A   Clear
4:56 AM 66.9 °F 37.9 °F 34% 29.78 in 10.0 mi South 12.7 mph - N/A   Clear
5:56 AM 66.9 °F 39.0 °F 36% 29.80 in 10.0 mi SSW 16.1 mph 21.9 mph N/A   Clear
6:56 AM 68.0 °F 39.0 °F 35% 29.80 in 10.0 mi SSW 8.1 mph - N/A   Clear
7:56 AM 71.1 °F 37.0 °F 29% 29.82 in 10.0 mi SW 4.6 mph - N/A   Clear
8:56 AM 73.0 °F 36.0 °F 26% 29.83 in 10.0 mi West 4.6 mph - N/A   Clear
9:56 AM 78.1 °F 35.1 °F 21% 29.83 in 10.0 mi NNE 3.5 mph - N/A   Clear
10:56 AM 81.0 °F 37.0 °F 21% 29.81 in 10.0 mi Variable 4.6 mph - N/A   Clear
11:56 AM 84.0 °F 37.0 °F 19% 29.80 in 10.0 mi Variable 4.6 mph - N/A   Clear
12:56 PM 87.1 °F 34.0 °F 15% 29.77 in 10.0 mi Calm Calm - N/A   Clear
1:56 PM 90.0 °F 28.9 °F 11% 29.74 in 10.0 mi Variable 5.8 mph - N/A   Clear
2:56 PM 93.0 °F 28.0 °F 10% 29.71 in 10.0 mi Variable 4.6 mph - N/A   Clear
3:56 PM 95.0 °F 23.0 °F 8% 29.69 in 10.0 mi SSE 15.0 mph 19.6 mph N/A   Clear
4:56 PM 95.0 °F 25.0 °F 8% 29.68 in 10.0 mi South 17.3 mph 25.3 mph N/A   Clear
5:56 PM 93.0 °F 21.0 °F 7% 29.66 in 10.0 mi South 17.3 mph 24.2 mph N/A   Clear
6:56 PM 90.0 °F 26.1 °F 10% 29.68 in 10.0 mi South 18.4 mph - N/A   Clear
7:56 PM 87.1 °F 28.9 °F 12% 29.68 in 10.0 mi South 10.4 mph - N/A   Clear
8:56 PM 81.0 °F 25.0 °F 13% 29.69 in 10.0 mi South 13.8 mph - N/A   Clear
9:56 PM 77.0 °F 36.0 °F 23% 29.70 in 10.0 mi South 13.8 mph - N/A   Clear
10:56 PM 73.9 °F 39.9 °F 29% 29.72 in 10.0 mi South 16.1 mph - N/A   Clear
11:56 PM 71.1 °F 41.0 °F 34% 29.73 in 10.0 mi South 16.1 mph - N/A   Clear